Location: Miami, Florida
(25.6830°N, 80.1700°W)
Time: 16:25:58
(UTC-04:00)

Vanguard 1 Rocket - All Passes

Search period start: 24 November 2017 00:00
Search period end: 04 December 2017 00:00
Orbit: 655 x 4222 km, 34.3° (Epoch: 23 November)

Date Brightness Start Highest point End Pass type
(mag) Time Alt. Az. Time Alt. Az. Time Alt. Az.
24 Nov - 01:15:29 10° W 01:41:51 68° N 02:02:36 10° E visible
24 Nov - 03:51:06 10° WNW 04:16:36 84° NNE 04:30:53 10° ESE visible
24 Nov - 06:27:29 10° WNW 06:45:05 43° SW 06:54:43 10° SSE visible
24 Nov - 19:07:35 10° S 19:20:21 34° SE 19:40:03 10° ENE visible
24 Nov - 21:30:56 10° SW 21:49:41 81° SSE 22:16:25 10° ENE visible
25 Nov - 00:00:28 10° W 00:25:00 71° N 00:48:59 10° ENE visible
25 Nov - 02:34:47 10° WNW 03:01:35 74° NNE 03:19:00 10° E visible
25 Nov - 05:10:36 10° WNW 05:33:03 66° SW 05:44:58 10° SE visible
25 Nov - 07:50:11 10° W 07:58:23 16° WSW 08:04:22 10° SSW daylight
25 Nov - 18:00:14 10° SSE 18:08:36 18° SE 18:19:57 10° E daylight
25 Nov - 20:19:45 10° SW 20:35:26 63° SE 21:00:36 10° ENE visible
25 Nov - 22:46:39 10° WSW 23:08:20 78° NNW 23:34:35 10° ENE visible
26 Nov - 01:18:59 10° W 01:45:23 69° N 02:06:13 10° E visible
26 Nov - 03:54:06 10° WNW 04:19:42 87° SSW 04:34:13 10° ESE visible
26 Nov - 06:31:01 10° WNW 06:47:28 34° SW 06:57:09 10° SSE visible
26 Nov - 19:09:44 10° SSW 19:22:34 43° SE 19:43:43 10° ENE visible
26 Nov - 21:34:04 10° WSW 21:52:32 90° SE 22:19:28 10° ENE visible
27 Nov - 00:04:02 10° W 00:28:29 69° N 00:52:30 10° E visible
27 Nov - 02:37:59 10° WNW 03:04:54 80° NNE 03:22:31 10° ESE visible
27 Nov - 05:13:39 10° WNW 05:35:40 56° SW 05:47:50 10° SSE visible
27 Nov - 07:57:48 10° WSW 08:00:43 11° WSW 08:03:19 10° SW daylight
27 Nov - 18:01:16 10° S 18:10:49 24° SE 18:25:10 10° E daylight
27 Nov - 20:22:36 10° SW 20:38:00 73° SE 21:03:38 10° ENE visible
27 Nov - 22:50:09 10° W 23:11:38 73° NNW 23:37:54 10° ENE visible
28 Nov - 01:22:25 10° WNW 01:48:51 72° N 02:09:49 10° E visible
28 Nov - 03:57:05 10° WNW 04:22:34 77° SSW 04:37:24 10° SE visible
28 Nov - 06:35:01 10° W 06:49:44 27° SW 06:59:10 10° S visible
28 Nov - 19:12:14 10° SSW 19:24:53 52° SE 19:47:03 10° ENE visible
28 Nov - 21:37:23 10° WSW 21:55:34 82° NNW 22:22:34 10° ENE visible
29 Nov - 00:07:36 10° W 00:32:00 69° N 00:56:03 10° E visible
29 Nov - 02:41:06 10° WNW 03:08:03 87° NNE 03:25:54 10° ESE visible
29 Nov - 05:16:53 10° WNW 05:38:04 46° SW 05:50:28 10° SSE visible
29 Nov - 18:03:05 10° S 18:13:03 32° SE 18:29:25 10° ENE daylight
29 Nov - 20:25:41 10° SW 20:40:46 83° SSE 21:06:37 10° ENE visible
29 Nov - 22:53:43 10° W 23:15:04 70° N 23:41:18 10° ENE visible
30 Nov - 01:25:46 10° WNW 01:52:13 76° NNE 02:13:21 10° ESE visible
30 Nov - 04:00:04 10° WNW 04:25:14 66° SW 04:40:21 10° SE visible
30 Nov - 06:39:48 10° W 06:51:57 20° SW 07:00:34 10° SSW visible
30 Nov - 16:56:26 10° SSE 17:02:02 15° ESE 17:09:20 10° E daylight
30 Nov - 19:15:00 10° SW 19:27:23 62° SE 19:50:09 10° ENE visible
30 Nov - 21:40:50 10° WSW 21:58:49 76° NNW 22:25:44 10° ENE visible
01 Dec - 00:11:08 10° WNW 00:35:30 70° N 00:59:38 10° E visible
01 Dec - 02:44:10 10° WNW 03:10:59 85° SSW 03:29:08 10° ESE visible
01 Dec - 05:20:24 10° WNW 05:40:19 37° SW 05:52:46 10° SSE visible
01 Dec - 18:05:21 10° SSW 18:15:22 40° SE 18:33:05 10° ENE daylight
01 Dec - 20:28:56 10° WSW 20:43:46 88° NNW 21:09:36 10° ENE visible
01 Dec - 22:57:19 10° W 23:18:34 69° N 23:44:47 10° E visible
02 Dec - 01:29:00 10° WNW 01:55:26 82° NNE 02:16:46 10° ESE visible
02 Dec - 04:03:10 10° WNW 04:27:41 57° SW 04:43:05 10° SSE visible
02 Dec - 06:46:10 10° W 06:54:13 14° WSW 07:00:41 10° SSW visible
02 Dec - 16:57:18 10° S 17:04:21 21° SE 17:14:51 10° E daylight
02 Dec - 19:17:58 10° SW 19:30:06 73° SE 19:53:08 10° ENE visible
02 Dec - 21:44:24 10° W 22:02:13 72° N 22:29:01 10° ENE visible
03 Dec - 00:14:35 10° WNW 00:38:55 73° NNE 01:03:10 10° E visible
03 Dec - 02:47:12 10° WNW 03:13:43 76° SW 03:32:09 10° SE visible
03 Dec - 05:24:22 10° WNW 05:42:30 29° SW 05:54:41 10° S visible
03 Dec - 18:07:57 10° SSW 18:17:50 50° SE 18:36:25 10° ENE daylight
03 Dec - 20:32:21 10° WSW 20:46:57 80° NNW 21:12:39 10° ENE visible
03 Dec - 23:00:55 10° W 23:22:06 69° N 23:48:19 10° E visible
